This demonstration page uses our WeatherBlox Daily Observations layout. Learn more.

Left ArrowRight Arrow

Hourly Observations for February 19, 2019

Temp ( °F °C ) Dew Point ( °F °C ) Humidity (%) Winds ( mph kmh ) Pressure ( in mb ) Visibility ( mi km ) Precip ( " mm )
12:15 am 00:15 Partly Cloudy 25 -4 25 -4 100 100 N 3 6 30.58 1036 10 16 N/A
12:16 am 00:16 Partly Cloudy 25 -4 25 -4 100 100 N 3 6 30.58 1036 10 16 N/A
12:35 am 00:35 Clear 23 -5 23 -5 100 100 N N/A 30.58 1036 10 16 N/A
12:36 am 00:36 Clear 23 -5 23 -5 100 100 N N/A 30.59 1036 10 16 N/A
12:55 am 00:55 Clear 21 -6 21 -6 100 100 N N/A 30.59 1036 7 11 N/A
1:15 am 01:15 Clear 21 -6 21 -6 100 100 N 3 6 30.60 1036 7 11 N/A
1:16 am 01:16 Clear 21 -6 21 -6 100 100 N 3 6 30.60 1036 7 11 N/A
1:35 am 01:35 Clear 21 -6 21 -6 100 100 N 3 6 30.61 1037 7 11 N/A
1:36 am 01:36 Clear 21 -6 21 -6 100 100 N 3 6 30.61 1037 7 11 N/A
1:55 am 01:55 Clear 21 -6 21 -6 100 100 N 3 6 30.61 1037 7 11 N/A
2:15 am 02:15 Clear 21 -6 21 -6 100 100 NNE 3 6 30.61 1037 10 16 N/A
2:16 am 02:16 Clear 19 -7 19 -7 100 100 NE 3 6 30.61 1037 10 16 N/A
2:35 am 02:35 Clear 21 -6 21 -6 100 100 NNE 5 7 30.61 1037 10 16 N/A
2:36 am 02:36 Clear 21 -6 21 -6 100 100 NNE 5 7 30.61 1037 10 16 N/A
2:55 am 02:55 Clear 21 -6 21 -6 100 100 NNE 3 6 30.63 1037 10 16 N/A
3:15 am 03:15 Clear 19 -7 19 -7 100 100 N N/A 30.63 1037 10 16 N/A
3:16 am 03:16 Clear 19 -7 19 -7 100 100 N N/A 30.64 1038 10 16 N/A
3:35 am 03:35 Clear 19 -7 19 -7 100 100 N N/A 30.64 1038 10 16 N/A
3:55 am 03:55 Clear 19 -7 19 -7 100 100 N N/A 30.64 1038 10 16 N/A
4:15 am 04:15 Clear 19 -7 19 -7 100 100 N N/A 30.64 1038 10 16 N/A
4:16 am 04:16 Clear 19 -7 19 -7 100 100 N N/A 30.64 1038 10 16 N/A
4:35 am 04:35 Clear 19 -7 19 -7 100 100 N N/A 30.64 1038 7 11 N/A
4:36 am 04:36 Clear 19 -7 19 -7 100 100 N N/A 30.64 1038 7 11 N/A
4:55 am 04:55 Clear 19 -7 19 -7 100 100 N N/A 30.65 1038 10 16 N/A
5:15 am 05:15 Clear 18 -8 18 -8 100 100 N N/A 30.66 1038 7 11 N/A
5:16 am 05:16 Clear 18 -8 18 -8 100 100 N N/A 30.66 1038 7 11 N/A
5:35 am 05:35 Clear 19 -7 19 -7 100 100 NE 3 6 30.65 1038 10 16 N/A
5:36 am 05:36 Clear 19 -7 19 -7 100 100 NE 3 6 30.65 1038 10 16 N/A
5:55 am 05:55 Clear 18 -8 18 -8 100 100 N N/A 30.67 1038 10 16 N/A
6:15 am 06:15 Clear 18 -8 18 -8 100 100 N N/A 30.67 1038 10 16 N/A
6:16 am 06:16 Clear 18 -8 18 -8 100 100 N N/A 30.67 1038 10 16 N/A
6:35 am 06:35 Clear 18 -8 18 -8 100 100 N N/A 30.68 1039 10 16 N/A
6:36 am 06:36 Clear 18 -8 18 -8 100 100 N N/A 30.68 1039 10 16 N/A
6:55 am 06:55 Clear 18 -8 18 -8 100 100 N N/A 30.68 1039 10 16 N/A
7:15 am 07:15 Clear 18 -8 18 -8 100 100 NNE 3 6 30.69 1039 10 16 N/A
7:16 am 07:16 Clear 18 -8 18 -8 100 100 NNE 3 6 30.69 1039 10 16 N/A
7:35 am 07:35 Sunny 18 -8 18 -8 100 100 NNE 5 7 30.69 1039 10 16 N/A
7:55 am 07:55 Sunny 18 -8 18 -8 100 100 NE 3 6 30.70 1039 10 16 N/A
8:15 am 08:15 Sunny 18 -8 18 -8 100 100 NE 3 6 30.71 1040 10 16 N/A
8:16 am 08:16 Sunny 18 -8 18 -8 100 100 NE 3 6 30.71 1040 10 16 N/A
8:35 am 08:35 Sunny 19 -7 19 -7 100 100 N N/A 30.71 1040 10 16 N/A
8:56 am 08:56 Sunny 21 -6 21 -6 100 100 N N/A 30.71 1040 10 16 N/A
9:15 am 09:15 Sunny 23 -5 21 -6 93 93 E 6 9 30.70 1040 10 16 N/A
9:16 am 09:16 Sunny 23 -5 21 -6 93 93 E 6 9 30.70 1040 10 16 N/A
9:35 am 09:35 Sunny 25 -4 23 -5 93 93 E 6 9 30.70 1040 10 16 N/A
9:55 am 09:55 Sunny 27 -3 23 -5 86 86 E 7 11 30.69 1039 10 16 N/A
9:56 am 09:56 Sunny 27 -3 23 -5 86 86 E 6 9 30.69 1039 10 16 N/A
10:15 am 10:15 Sunny 28 -2 21 -6 74 74 E 8 13 30.67 1039 10 16 N/A
10:16 am 10:16 Sunny 28 -2 21 -6 74 74 E 8 13 30.67 1039 10 16 N/A
10:35 am 10:35 Sunny 28 -2 23 -5 80 80 E 8 13 30.67 1039 10 16 N/A
10:56 am 10:56 Sunny 30 -1 21 -6 69 69 E 8 13 30.67 1039 10 16 N/A
11:15 am 11:15 Sunny 30 -1 21 -6 69 69 E 7 11 30.66 1038 10 16 N/A
11:16 am 11:16 Sunny 30 -1 21 -6 69 69 E 8 13 30.66 1038 10 16 N/A
11:35 am 11:35 Sunny 30 -1 21 -6 69 69 E 8 13 30.66 1038 10 16 N/A
11:55 am 11:55 Sunny 32 undefined 23 -5 69 69 ENE 9 15 30.66 1038 10 16 N/A
11:56 am 11:56 Sunny 32 undefined 23 -5 69 69 ENE 8 13 30.66 1038 10 16 N/A
12:15 pm 12:15 Sunny 32 undefined 23 -5 69 69 ESE 8 13 30.66 1038 10 16 N/A
12:35 pm 12:35 Sunny 32 undefined 23 -5 69 69 E 9 15 30.64 1037 10 16 N/A
12:56 pm 12:56 Sunny 32 undefined 23 -5 69 69 E 9 15 30.62 1037 10 16 N/A
1:15 pm 13:15 Sunny 32 undefined 23 -5 69 69 E 10 17 30.60 1036 10 16 N/A
1:35 pm 13:35 Sunny 32 undefined 23 -5 69 69 E 9 15 30.59 1036 10 16 N/A
1:36 pm 13:36 Sunny 32 undefined 23 -5 69 69 E 9 15 30.59 1036 10 16 N/A
1:55 pm 13:55 Sunny 32 undefined 25 -4 75 75 ESE 8 13 30.58 1035 10 16 N/A
2:15 pm 14:15 Sunny 32 undefined 25 -4 75 75 E 9 15 30.57 1035 10 16 N/A
2:35 pm 14:35 Sunny 32 undefined 25 -4 75 75 E 8 13 30.56 1035 10 16 N/A
2:55 pm 14:55 Sunny 32 undefined 25 -4 75 75 E 10 17 30.55 1034 10 16 N/A
2:56 pm 14:56 Sunny 32 undefined 25 -4 75 75 E 9 15 30.55 1034 10 16 N/A
3:15 pm 15:15 Sunny 32 undefined 25 -4 75 75 E 9 15 30.54 1034 10 16 N/A
3:16 pm 15:16 Sunny 32 undefined 25 -4 75 75 E 10 17 30.54 1034 10 16 N/A
3:35 pm 15:35 Sunny 32 undefined 25 -4 75 75 E 10 17 30.54 1034 10 16 N/A
3:56 pm 15:56 Sunny 32 undefined 25 -4 75 75 ENE 9 15 30.54 1034 10 16 N/A
4:15 pm 16:15 Sunny 32 undefined 25 -4 75 75 E 9 15 30.53 1034 10 16 N/A
4:35 pm 16:35 Sunny 32 undefined 25 -4 75 75 E 9 15 30.52 1033 10 16 N/A
4:36 pm 16:36 Sunny 32 undefined 25 -4 75 75 E 10 17 30.52 1033 10 16 N/A
4:55 pm 16:55 Sunny 32 undefined 27 -3 80 80 E 10 17 30.52 1033 10 16 N/A
4:56 pm 16:56 Sunny 32 undefined 27 -3 80 80 E 9 15 30.52 1033 10 16 N/A
5:15 pm 17:15 Sunny 32 undefined 25 -4 75 75 E 9 15 30.52 1033 10 16 N/A
5:35 pm 17:35 Sunny 32 undefined 25 -4 75 75 E 10 17 30.51 1033 10 16 N/A
5:36 pm 17:36 Sunny 32 undefined 25 -4 75 75 E 10 17 30.51 1033 10 16 N/A
5:55 pm 17:55 Sunny 30 -1 27 -3 86 86 E 9 15 30.49 1032 10 16 N/A
5:56 pm 17:56 Sunny 30 -1 27 -3 86 86 E 10 17 30.49 1032 10 16 N/A
6:15 pm 18:15 Sunny 30 -1 27 -3 86 86 E 10 17 30.49 1032 10 16 N/A
6:35 pm 18:35 Clear 30 -1 27 -3 86 86 E 10 17 30.50 1033 10 16 N/A
6:36 pm 18:36 Clear 30 -1 27 -3 86 86 E 10 17 30.50 1033 10 16 N/A
6:55 pm 18:55 Clear 30 -1 27 -3 86 86 E 9 15 30.48 1032 10 16 N/A
6:56 pm 18:56 Clear 30 -1 27 -3 86 86 E 9 15 30.48 1032 10 16 N/A
7:15 pm 19:15 Clear 30 -1 27 -3 86 86 ENE 7 11 30.47 1032 10 16 N/A
7:35 pm 19:35 Clear 30 -1 27 -3 86 86 ENE 8 13 30.46 1031 10 16 N/A
7:36 pm 19:36 Clear 30 -1 27 -3 86 86 ENE 9 15 30.46 1031 10 16 N/A
7:55 pm 19:55 Clear 30 -1 27 -3 86 86 ENE 7 11 30.46 1031 10 16 N/A
8:15 pm 20:15 Partly Cloudy 30 -1 27 -3 86 86 E 8 13 30.45 1031 10 16 N/A
8:35 pm 20:35 Partly Cloudy 30 -1 27 -3 86 86 E 9 15 30.44 1031 10 16 N/A
8:36 pm 20:36 Partly Cloudy 30 -1 27 -3 86 86 E 9 15 30.44 1031 10 16 N/A
8:55 pm 20:55 Partly Cloudy 30 -1 27 -3 86 86 E 12 19 30.43 1030 10 16 N/A
9:15 pm 21:15 Mostly Cloudy 30 -1 27 -3 86 86 E 10 17 30.43 1030 10 16 N/A
9:35 pm 21:35 Cloudy 30 -1 28 -2 93 93 E 13 20 30.42 1030 10 16 N/A
9:36 pm 21:36 Cloudy 30 -1 28 -2 93 93 E 13 20 30.42 1030 10 16 N/A
9:55 pm 21:55 Cloudy 30 -1 28 -2 93 93 E 12 19 30.41 1030 10 16 N/A
10:15 pm 22:15 Cloudy 30 -1 28 -2 93 93 E 10 17 30.41 1030 10 16 N/A
10:35 pm 22:35 Cloudy 30 -1 28 -2 93 93 E 12 19 30.39 1029 10 16 N/A

Powered by AerisWeather